This demonstration page uses our WeatherBlox Daily Observations layout. Learn more.

Left ArrowRight Arrow

39.08367, -84.50855

Hourly Observations for September 12, 2017

Temp ( °F °C ) Dew Point ( °F °C ) Humidity (%) Winds ( mph kmh ) Pressure ( in mb ) Visibility ( mi km ) Precip ( " mm )
12:53 am 00:53 Clear 57 13.9 55 12.8 93 93 NE 5 7 30.01 1016 10 16 N/A
1:53 am 01:53 Clear 55 12.8 53 11.7 93 93 N N/A 29.99 1016 10 16 N/A
2:53 am 02:53 Clear 59 15 55 12.8 87 87 NNE 7 11 29.97 1015 10 16 N/A
3:53 am 03:53 Clear 59 15 55 12.8 87 87 N 3 6 29.96 1015 10 16 N/A
4:53 am 04:53 Clear 58 14.4 55 12.8 90 90 NE 3 6 29.95 1014 10 16 N/A
5:53 am 05:53 Clear with Light Rain 59 15 56 13.3 90 90 NNE 5 7 29.92 1013 10 16 N/A
6:53 am 06:53 Clear 58 14.4 56 13.3 93 93 ENE 5 7 29.93 1014 10 16 N/A
7:53 am 07:53 Partly Cloudy 59 15 55 12.8 87 87 NNE 8 13 29.94 1014 10 16 N/A
8:53 am 08:53 Partly Cloudy with Light Rain 60 15.6 56 13.3 86 86 E 6 9 29.93 1014 10 16 0.01 0.25
9:04 am 09:04 Mostly Cloudy with Light Rain 60 15.6 56 13.3 86 86 NE 6 9 29.91 1013 10 16 N/A
9:53 am 09:53 Mostly Cloudy with Light Rain 59 15 57 13.9 93 93 NE 9 15 29.93 1014 6 10 0.04 1.02
10:53 am 10:53 Cloudy with Light Rain 61 16.1 59 15 93 93 E 3 6 29.93 1014 7 11 0.04 1.02
11:53 am 11:53 Cloudy with Light Rain 64 17.8 61 16.1 90 90 NE 5 7 29.92 1013 6 10 0.02 0.51
12:53 pm 12:53 Cloudy with Light Rain 66 18.9 62 16.7 87 87 NE 8 13 29.88 1012 7 11 0.04 1.02
1:53 pm 13:53 Cloudy with Light Rain 65 18.3 62 16.7 90 90 ENE 10 17 29.88 1012 10 16 0.01 0.25
2:53 pm 14:53 Cloudy with Light Rain 63 17.2 62 16.7 97 97 ENE 10 17 29.86 1011 6 10 0.07 1.78
3:53 pm 15:53 Cloudy 65 18.3 63 17.2 93 93 ENE 12 19 29.84 1010 10 16 0.02 0.51
4:24 pm 16:24 Mostly Cloudy 66 18.9 62 16.7 87 87 ENE 13 20 29.83 1010 10 16 N/A
4:53 pm 16:53 Mostly Cloudy 68 20 64 17.8 87 87 ENE 17 28 29.81 1010 10 16 N/A
5:53 pm 17:53 Mostly Cloudy 69 20.6 64 17.8 84 84 ENE 12 19 29.80 1009 10 16 N/A
6:16 pm 18:16 Partly Cloudy 70 21.1 64 17.8 82 82 ENE 12 19 29.80 1009 10 16 N/A
6:53 pm 18:53 Sunny 69 20.6 64 17.8 84 84 ENE 10 17 29.80 1009 10 16 N/A
7:53 pm 19:53 Partly Cloudy 67 19.4 63 17.2 87 87 ENE 12 19 29.79 1009 10 16 N/A
8:53 pm 20:53 Clear 64 17.8 62 16.7 93 93 NE 6 9 29.80 1009 10 16 N/A
9:53 pm 21:53 Clear 63 17.2 61 16.1 93 93 NE 7 11 29.80 1009 10 16 N/A
10:53 pm 22:53 Cloudy 62 16.7 60 15.6 93 93 NNE 3 6 29.80 1009 10 16 N/A
11:22 pm 23:22 Mostly Cloudy 61 16.1 61 16.1 100 100 S 3 6 29.83 1010 10 16 N/A
11:53 pm 23:53 Cloudy 63 17.2 62 16.7 97 97 N N/A 29.81 1009 10 16 N/A

Powered by AerisWeather